x

San Clemente Basin - 27nm Se Of San Clemente Is, Ca (46086) Wave Buoy

2:50am - Sat 25th Feb 2017 All times are PST. -8 hours from GMT.

  • Sig Wave height 4.6ft
  • Swell Direction
  • Peak Period 11s
  • Average Period 6s
  • Wind
    7mph, 9mph gusts
  • Sea Temp 59°f
  • Air Temp 55°f
  • Sea Pressure 1020.5mb
  • San Clemente Basin - 27nm Se Of San Clemente Is, Ca
  • San Clemente Basin - 27nm Se Of San Clemente Is, Ca

More Historic Weather Station data

Upgrade to MSW Pro to gain access to the past 30 days of data for over 8000 Wavebouys and Weather Stations around the globe.

Join Pro

Comparision Forecast

View Surf forecast
   
Sat 02/25 2:50am 4.5ft 11s 6s 7 9 mph 1020.5mb 59f 55f
1:50am 4ft 8s 6s 7 11 mph 1021mb 59f 55f
12:50am 4.5ft 8s 6s 7 11 mph 1021.6mb 59f 54f
Fri 02/24 11:50pm 4.5ft 9s 6s 7 9 mph 1021.7mb 59f 55f
10:50pm 4.5ft 8s 6s 7 9 mph 1022.1mb 59f 55f
9:50pm 4.5ft 11s 6s 7 9 mph 1022.1mb 59f 55f
8:50pm 4.5ft 9s 6s 9 11 mph 1021.5mb 59f 55f
7:50pm 4.5ft 11s 6s 9 13 mph 1021.3mb 59f 55f
6:50pm 4.5ft 11s 6s 11 16 mph 1021mb 59f 55f
5:50pm 4.5ft 9s 6s 11 13 mph 1021mb 59f 55f
4:50pm 4.5ft 9s 6s 9 13 mph 1021mb 59f 56f
3:50pm 5ft 8s 6s 7 9 mph 1021.1mb 60f 56f
2:50pm 5.5ft 9s 7s 7 9 mph 1021.1mb 60f 56f
1:50pm 5ft 10s 7s 9 11 mph 1021.7mb 59f 56f
12:50pm 6ft 9s 7s 11
mph
1021.4mb 59f 56f
11:50am 5.5ft 8s 6s 9 11 mph 1022.1mb 59f 56f
10:50am 7ft 9s 7s 7 9 mph 1022.2mb 59f 55f
9:50am 6ft 8s 7s 7 9 mph 1022.2mb 59f 55f
8:50am 6ft 8s 7s 9 11 mph 1021.7mb 59f 55f
7:50am 6.5ft 8s 7s 11 13 mph 1021.1mb 59f 54f
6:50am 7ft 8s 7s 9 13 mph 1020.4mb 59f 54f
5:50am 8ft 9s 7s 9 13 mph 1020mb 59f 54f
4:50am 7ft 9s 7s 11 13 mph 1019.6mb 59f 54f
3:50am 8.5ft 8s 7s 11 16 mph 1019.1mb 59f 54f
2:50am 8ft 8s 7s 16 18 mph 1019.5mb 59f 54f
1:50am 9ft 8s 7s 13 18 mph 1019.7mb 59f 55f
12:50am 8.5ft 10s 7s 11 16 mph 1020.1mb 59f 54f
Thu 02/23 11:50pm 8ft 8s 7s 13 18 mph 1020.4mb 59f 54f
10:50pm 8.5ft 8s 7s 13 16 mph 1020.3mb 59f 54f
9:50pm 8ft 9s 7s 16 20 mph 1020mb 59f 54f
8:50pm 8ft 9s 6s 18 22 mph 1019.7mb 59f 55f
7:50pm 8ft 8s 7s 20 22 mph 1019.2mb 59f 55f
6:50pm 9ft 8s 7s 20 25 mph 1018.9mb 59f 55f
5:50pm 9ft 8s 7s 22 27 mph 1018.5mb 59f 54f
4:50pm 8.5ft 13s 7s 22 27 mph 1018.1mb 59f 55f
3:50pm 8ft 11s 6s 25 29 mph 1017.9mb 59f 54f
2:50pm 9ft 10s 7s 25 29 mph 1017.9mb 59f 54f
1:50pm 10ft 9s 7s 20 25 mph 1018.3mb 59f 54f
12:50pm 9ft 11s 7s 20 25 mph 1019mb 59f 54f
11:50am 11ft 8s 7s 18 22 mph 1019.5mb 59f 54f
10:50am 10.5ft 8s 7s 20 25 mph 1019.7mb 59f 54f
9:50am 10ft 12s 7s 20 25 mph 1019.5mb 59f 54f
8:50am 11ft 12s 7s 25 31 mph 1019.2mb 59f 54f
7:50am 10.5ft 10s 7s 25 31 mph 1018.7mb 59f 54f
6:50am 11ft 9s 7s 25 29 mph 1018.6mb 59f 55f
5:50am 11ft 10s 7s 25 29 mph 1018.3mb 59f 55f
4:50am 11.5ft 9s 7s 25 29 mph 1017.5mb 59f 55f
3:50am 12.5ft 8s 7s 27 31 mph 1017.2mb 59f 56f
2:50am 12ft 9s 7s 25 31 mph 1017.2mb 59f 56f
1:50am 11.5ft 14s 7s 25 29 mph 1018mb 59f 56f
12:50am 11ft 14s 7s 22 27 mph 1018.1mb 59f 56f
Wed 02/22 11:50pm 11ft 14s 7s 29 36 mph 1018mb 59f 56f
10:50pm 11.5ft 8s 7s 27 31 mph 1018.2mb 59f 56f
9:50pm 11ft 14s 7s 27 34 mph 1018.2mb 59f 57f
8:50pm 11ft 15s 7s 25 31 mph 1018.4mb 59f 57f
7:50pm 10ft 15s 7s 27 31 mph 1018.2mb 60f 57f
6:50pm 10ft 15s 7s 27 34 mph 1017.7mb 60f 57f
5:50pm 9.5ft 13s 7s 25 29 mph 1018.3mb 60f 56f
4:50pm 9.5ft 15s 7s 22 27 mph 1018.3mb 60f 57f
3:50pm 9ft 15s 7s 22 27 mph 1018.7mb 60f 56f
2:50pm 9ft 12s 7s 20 25 mph 1018.8mb 60f 57f
1:50pm 8.5ft 15s 7s 20 25 mph 1019.2mb 60f 57f
12:50pm 9ft 14s 8s 20 25 mph 1019.7mb 60f 57f
11:50am 9.5ft 16s 8s 22 27 mph 1020.3mb 60f 57f
10:50am 8.5ft 15s 8s 18 22 mph 1021.3mb 60f 57f
9:50am 9.5ft 14s 8s 18 20 mph 1021.5mb 60f 57f
8:50am 8.5ft 14s 8s 18 22 mph 1021.3mb 60f 58f
7:50am 9ft 13s 8s 18 20 mph 1020.9mb 60f 58f
6:50am 9ft 13s 8s 18 22 mph 1020.6mb 60f 58f
5:50am 9ft 11s 8s 16 20 mph 1020.7mb 60f 58f
4:50am 8.5ft 12s 8s 11 16 mph 1020.6mb 60f 58f
2:50am 8ft 11s 8s 16 20 mph 1021.2mb 60f 58f
1:50am 7.5ft 11s 8s 16 20 mph 1021.7mb 60f 58f
12:50am 7ft 12s 8s 13 16 mph 1022.5mb 60f 58f
Tue 02/21 11:50pm 7ft 12s 8s 16 20 mph 1022.9mb 60f 58f
10:50pm 6.5ft 12s 8s 11 13 mph 1023mb 60f 58f
9:50pm 6ft 13s 8s 11 16 mph 1023.3mb 60f 59f
8:50pm 7ft 12s 8s 11 13 mph 1023.4mb 60f 60f
7:50pm 6ft 13s 8s 13 16 mph 1023.3mb 60f 59f
6:50pm 6ft 14s 9s 13 16 mph 1023.5mb 60f 59f
5:50pm 6ft 14s 8s 13 16 mph 1023.3mb 60f 60f
4:50pm 6ft 14s 9s 11 13 mph 1023.4mb 60f 60f
3:50pm 6.5ft 14s 9s 13 16 mph 1023.7mb 60f 60f
2:50pm 6ft 14s 9s 9 13 mph 1023.9mb 60f 60f
1:50pm 6.5ft 14s 9s 9 11 mph 1024.4mb 60f 60f
12:50pm 7ft 14s 9s 9 11 mph 1025.3mb 60f 60f